This demonstration page uses our WeatherBlox Daily Observations layout. Learn more.

40.92945, -100.16068

Hourly Observations for January 30, 2015

Temp ( °F °C ) Dew Point ( °F °C ) Humidity (%) Winds ( mph kmh ) Pressure ( in mb ) Visibility ( mi km ) Precip ( " mm )
12:15 am 00:15 Clear 20 -6.7 16 -8.7 86 86 W 3 6 30.65 1038 10 16.0934 N/A
12:35 am 00:35 Clear 19 -7 16 -8.9 86 86 Calm 30.65 1038 10 16.0934 N/A
12:55 am 00:55 Clear 19 -7.2 16 -8.8 88 88 Calm 30.65 1038 10 16.0934 N/A
1:15 am 01:15 Clear 19 -7.4 16 -9 88 88 Calm 30.65 1038 10 16.0934 N/A
1:35 am 01:35 Clear 19 -7.3 16 -9 88 88 Calm 30.59 1036 10 16.0934 N/A
1:55 am 01:55 Clear 19 -7.3 15 -9.4 85 85 Calm 30.59 1036 10 16.0934 N/A
2:15 am 02:15 Clear 18 -7.7 15 -9.5 87 87 Calm 30.62 1037 10 16.0934 N/A
2:35 am 02:35 Clear 18 -7.7 15 -9.3 88 88 Calm 30.62 1037 10 16.0934 N/A
2:55 am 02:55 Clear 18 -7.6 15 -9.2 88 88 Calm 30.62 1037 10 16.0934 N/A
3:15 am 03:15 Clear 19 -7.5 16 -9 89 89 Calm 30.59 1036 10 16.0934 N/A
3:35 am 03:35 Clear 18 -7.7 15 -9.6 86 86 Calm 30.62 1037 10 16.0934 N/A
3:55 am 03:55 Clear 19 -7.1 16 -9 86 86 ESE 3 6 30.59 1036 10 16.0934 N/A
4:15 am 04:15 Clear 18 -7.6 16 -9.1 89 89 Calm 30.59 1036 10 16.0934 N/A
4:35 am 04:35 Clear 19 -7 17 -8.5 89 89 ESE 3 6 30.56 1035 10 16.0934 N/A
4:55 am 04:55 Clear 21 -6.1 17 -8.1 86 86 ESE 5 7 30.56 1035 10 16.0934 N/A
5:15 am 05:15 Clear 20 -6.4 17 -8.1 88 88 Calm 30.56 1035 10 16.0934 N/A
5:35 am 05:35 Clear 23 -5 19 -7.2 85 85 SE 3 6 30.56 1035 10 16.0934 N/A
5:55 am 05:55 Clear 24 -4.2 20 -6.5 84 84 SSE 6 9 30.53 1034 10 16.0934 N/A
6:15 am 06:15 Clear 24 -4.5 20 -6.7 85 85 SSE 7 11 30.53 1034 10 16.0934 N/A
6:35 am 06:35 Clear 25 -4 20 -6.5 83 83 SE 6 9 30.53 1034 10 16.0934 N/A
6:55 am 06:55 Clear 25 -4 20 -6.4 84 84 SSE 7 11 30.53 1034 10 16.0934 N/A
7:15 am 07:15 Clear 26 -3.6 21 -6 84 84 SSE 8 13 30.53 1034 10 16.0934 N/A
7:35 am 07:35 Clear 24 -4.3 20 -6.5 85 85 SSE 5 7 30.53 1034 10 16.0934 N/A
7:55 am 07:55 Sunny 25 -4 21 -6.2 85 85 SSE 5 7 30.53 1034 10 16.0934 N/A
8:15 am 08:15 Sunny 25 -3.7 21 -6.1 84 84 SE 6 9 30.53 1034 10 16.0934 N/A
8:35 am 08:35 Sunny 26 -3.5 21 -5.9 84 84 SE 5 7 30.53 1034 10 16.0934 N/A
8:55 am 08:55 Sunny 26 -3.2 22 -5.6 84 84 SE 5 7 30.53 1034 10 16.0934 N/A
9:15 am 09:15 Sunny 27 -2.7 22 -5.3 83 83 SE 5 7 30.53 1034 10 16.0934 N/A
9:35 am 09:35 Sunny 28 -2.3 23 -5 82 82 SE 6 9 30.53 1034 10 16.0934 N/A
9:55 am 09:55 Sunny 29 -1.8 24 -4.3 83 83 SSE 7 11 30.48 1032 10 16.0934 N/A
10:15 am 10:15 Sunny 30 -0.9 26 -3.4 83 83 SSE 7 11 30.48 1032 10 16.0934 N/A
10:35 am 10:35 Sunny 32 0 27 -2.9 81 81 SSE 8 13 30.48 1032 10 16.0934 N/A
10:55 am 10:55 Sunny 34 1.3 28 -2.3 77 77 S 8 13 30.45 1031 10 16.0934 N/A
11:15 am 11:15 Sunny 38 3.1 28 -2.3 68 68 S 8 13 30.45 1031 10 16.0934 N/A
11:35 am 11:35 Sunny 40 4.6 28 -2.5 60 60 S 13 20 30.39 1029 10 16.0934 N/A
11:55 am 11:55 Sunny 41 5.2 27 -3 56 56 S 16 26 30.39 1029 10 16.0934 N/A
12:15 pm 12:15 Sunny 43 6 26 -3.1 52 52 S 17 28 30.36 1028 10 16.0934 N/A
12:35 pm 12:35 Sunny 44 6.5 26 -3.4 50 50 S 18 30 30.33 1027 10 16.0934 N/A
12:55 pm 12:55 Sunny 44 6.5 27 -2.9 51 51 S 17 28 30.3 1026 10 16.0934 N/A
1:15 pm 13:15 Partly Cloudy 44 6.7 27 -2.6 52 52 S 18 30 30.3 1026 10 16.0934 N/A
1:35 pm 13:35 Mostly Cloudy 45 7 27 -2.6 51 51 S 16 26 30.3 1026 10 16.0934 N/A
1:55 pm 13:55 Cloudy 46 8 28 -2.3 49 49 S 15 24 30.27 1025 10 16.0934 N/A
2:15 pm 14:15 Cloudy 47 8.5 26 -3.2 44 44 S 18 30 30.24 1024 10 16.0934 N/A
2:35 pm 14:35 Cloudy 47 8.1 27 -3 46 46 S 14 22 30.27 1025 10 16.0934 N/A
2:55 pm 14:55 Cloudy 46 8 26 -3.1 46 46 S 18 30 30.27 1025 10 16.0934 N/A
3:15 pm 15:15 Mostly Cloudy 46 8 26 -3.2 45 45 S 17 28 30.27 1025 10 16.0934 N/A
3:35 pm 15:35 Partly Cloudy 46 8 26 -3.2 45 45 S 16 26 30.24 1024 10 16.0934 N/A
3:55 pm 15:55 Partly Cloudy 46 7.8 26 -3.3 46 46 S 14 22 30.24 1024 10 16.0934 N/A
4:15 pm 16:15 Cloudy 46 7.8 26 -3.3 46 46 S 20 31 30.24 1024 10 16.0934 N/A
4:35 pm 16:35 Cloudy 46 7.6 26 -3.3 46 46 S 15 24 30.24 1024 10 16.0934 N/A
4:55 pm 16:55 Cloudy 46 7.5 26 -3.1 47 47 S 18 30 30.24 1024 10 16.0934 N/A
5:15 pm 17:15 Cloudy 45 7.1 26 -3.1 49 49 S 16 26 30.24 1024 10 16.0934 N/A
5:35 pm 17:35 Cloudy 45 7.1 27 -2.7 50 50 S 14 22 30.24 1024 10 16.0934 N/A
5:55 pm 17:55 Cloudy 45 7 27 -2.6 51 51 S 15 24 30.21 1023 10 16.0934 N/A
6:15 pm 18:15 Cloudy 44 6.8 28 -2.5 52 52 S 17 28 30.21 1023 10 16.0934 N/A
6:35 pm 18:35 Cloudy 44 6.8 28 -2.5 52 52 S 20 31 30.21 1023 10 16.0934 N/A
6:55 pm 18:55 Cloudy 44 6.6 28 -2.2 54 54 S 15 24 30.21 1023 10 16.0934 N/A
7:15 pm 19:15 Cloudy 44 6.5 29 -1.7 56 56 S 13 20 30.21 1023 10 16.0934 N/A
7:35 pm 19:35 Cloudy 44 6.5 30 -1 59 59 S 13 20 30.24 1024 10 16.0934 N/A
7:55 pm 19:55 Cloudy 43 6.1 31 -0.5 63 63 S 13 20 30.24 1024 10 16.0934 N/A
8:15 pm 20:15 Cloudy 42 5.8 32 0 67 67 S 16 26 30.24 1024 10 16.0934 N/A
8:35 pm 20:35 Cloudy 42 5.5 32 0.1 69 69 S 14 22 30.24 1024 10 16.0934 N/A
8:55 pm 20:55 Cloudy 41 5 32 0 70 70 S 20 31 30.27 1025 10 16.0934 N/A
9:15 pm 21:15 Cloudy 40 4.6 32 0 72 72 S 14 22 30.27 1025 10 16.0934 N/A
9:35 pm 21:35 Cloudy 40 4.2 32 0 74 74 S 12 19 30.27 1025 10 16.0934 N/A
9:55 pm 21:55 Cloudy 39 4 32 0.1 76 76 S 12 19 30.24 1024 10 16.0934 N/A
10:15 pm 22:15 Cloudy 39 3.8 33 0.3 78 78 S 13 20 30.24 1024 10 16.0934 N/A
10:35 pm 22:35 Cloudy 38 3.5 33 0.5 81 81 S 12 19 30.24 1024 10 16.0934 N/A
10:55 pm 22:55 Cloudy 38 3.2 33 0.5 83 83 S 10 17 30.24 1024 10 16.0934 N/A
11:15 pm 23:15 Cloudy 38 3.1 33 0.7 84 84 S 9 15 30.24 1024 10 16.0934 N/A
11:35 pm 23:35 Cloudy 37 3 33 0.7 85 85 S 12 19 30.24 1024 10 16.0934 N/A
11:55 pm 23:55 Cloudy 37 2.7 33 0.8 87 87 S 10 17 30.24 1024 10 16.0934 N/A

Powered by AerisWeather